�N����,����,�~����,�C��,���x,�C��,����,���ϕ���,�ő�u�ԕ���,�ő厞����,���˗�,�I�_���x,�n�����x,�ő啗���N��,DTYPE
"17/10/24","00:10",0.0,10.9,91.3,1011.9,310.6,1.5,2.8,332.3,0.00,9.6,15.7,"00:09:56",1
"17/10/24","00:20",0.0,11.0,91.7,1011.9,325.1,1.7,2.6,325.2,0.00,9.7,15.6,"00:14:06",1
"17/10/24","00:30",0.0,11.1,91.5,1011.9,325.9,1.5,2.8,321.6,0.00,9.8,15.5,"00:28:28",1
"17/10/24","00:40",0.0,11.1,91.2,1012.1,339.0,0.7,2.0,329.8,0.00,9.8,15.2,"00:33:50",1
"17/10/24","00:50",0.0,11.1,91.3,1012.1,294.6,1.0,2.0,321.2,0.00,9.8,15.4,"00:45:12",1
"17/10/24","01:00",0.0,11.0,91.4,1012.6,305.1,1.5,2.0,314.4,0.00,9.7,15.5,"00:59:00",1
"17/10/24","01:10",0.0,11.0,91.4,1012.8,302.7,1.2,1.9,306.6,0.00,9.7,15.5,"01:00:40",1
"17/10/24","01:20",0.0,11.1,91.1,1012.3,321.7,1.2,1.9,338.5,0.00,9.7,15.3,"01:14:50",1
"17/10/24","01:30",0.0,11.2,90.4,1012.3,327.9,1.6,2.8,325.6,0.00,9.7,15.3,"01:27:46",1
"17/10/24","01:40",0.0,11.1,90.0,1012.8,327.7,2.0,3.2,327.9,0.00,9.6,15.5,"01:31:48",1
"17/10/24","01:50",0.0,11.0,90.1,1013.0,325.3,1.8,2.8,339.7,0.00,9.5,15.4,"01:40:56",1
"17/10/24","02:00",0.0,11.0,90.3,1012.8,329.2,1.8,3.5,335.1,0.00,9.5,15.4,"01:57:02",1
"17/10/24","02:10",0.0,10.9,90.3,1013.5,325.4,1.8,3.2,335.0,0.00,9.4,15.4,"02:00:38",1
"17/10/24","02:20",0.0,11.0,90.1,1013.8,323.1,2.1,2.8,330.9,0.00,9.5,15.3,"02:12:38",1
"17/10/24","02:30",0.0,10.9,90.2,1013.3,322.9,1.7,2.8,337.4,0.00,9.4,15.5,"02:20:08",1
"17/10/24","02:40",0.0,10.9,90.6,1013.3,327.4,1.1,3.2,316.7,0.00,9.5,15.3,"02:39:48",1
"17/10/24","02:50",0.0,11.0,90.4,1013.3,326.6,2.2,3.9,326.0,0.00,9.5,15.4,"02:42:22",1
"17/10/24","03:00",0.0,11.0,89.7,1013.3,317.5,2.2,3.7,332.9,0.00,9.4,15.3,"02:51:06",1
"17/10/24","03:10",0.0,11.1,89.4,1013.0,328.9,2.3,3.6,325.1,0.00,9.5,15.1,"03:09:32",1
"17/10/24","03:20",0.0,11.1,89.4,1013.0,328.7,2.3,3.2,328.2,0.00,9.5,15.2,"03:11:12",1
"17/10/24","03:30",0.0,11.1,89.4,1013.3,327.7,1.5,2.1,319.3,0.00,9.5,15.4,"03:20:28",1
"17/10/24","03:40",0.0,11.1,89.2,1013.0,316.6,2.1,3.6,321.9,0.00,9.4,15.2,"03:38:08",1
"17/10/24","03:50",0.0,11.1,89.1,1013.5,309.3,1.2,2.2,330.8,0.00,9.4,14.9,"03:40:12",1
"17/10/24","04:00",0.0,11.0,89.6,1013.3,328.5,1.1,2.1,341.3,0.00,9.4,15.2,"03:56:06",1
"17/10/24","04:10",0.0,10.8,90.1,1013.5,291.3,1.3,2.4,319.9,0.00,9.3,15.3,"04:01:12",1
"17/10/24","04:20",0.0,10.6,91.1,1013.5,321.4,1.1,2.6,318.8,0.00,9.2,15.1,"04:15:42",1
"17/10/24","04:30",0.0,10.5,91.8,1013.3,297.8,1.2,1.6,301.9,0.00,9.3,15.1,"04:27:12",1
"17/10/24","04:40",0.0,10.4,92.3,1013.8,292.2,1.1,1.7,320.1,0.00,9.2,15.0,"04:37:36",1
"17/10/24","04:50",0.0,10.4,92.8,1014.0,301.6,1.0,2.0,318.1,0.00,9.3,15.0,"04:41:44",1
"17/10/24","05:00",0.0,10.3,93.3,1013.8,298.3,0.7,1.2,302.6,0.00,9.3,15.0,"04:52:42",1
"17/10/24","05:10",0.0,10.2,93.8,1014.0,295.2,0.8,1.7,315.1,0.00,9.3,15.1,"05:04:08",1
"17/10/24","05:20",0.0,10.3,94.0,1014.2,320.3,1.2,2.4,326.1,0.00,9.4,15.0,"05:17:38",1
"17/10/24","05:30",0.0,10.5,93.8,1013.8,322.7,1.7,2.8,314.7,0.00,9.6,14.9,"05:23:12",1
"17/10/24","05:40",0.0,10.7,93.5,1014.2,312.4,1.8,2.7,329.7,0.00,9.7,15.1,"05:35:46",1
"17/10/24","05:50",0.0,10.7,93.3,1014.5,313.5,1.2,2.6,301.8,0.00,9.7,15.1,"05:40:32",1
"17/10/24","06:00",0.0,10.6,93.2,1014.5,262.6,0.5,1.0,265.6,0.00,9.6,15.0,"05:52:26",1
"17/10/24","06:10",0.0,10.5,93.5,1014.9,262.9,0.7,1.2,293.6,0.00,9.5,15.0,"06:09:34",1
"17/10/24","06:20",0.0,10.4,93.6,1014.9,316.0,1.6,2.5,322.5,0.00,9.5,15.0,"06:12:14",1
"17/10/24","06:30",0.0,10.4,93.8,1014.9,303.4,1.5,2.2,318.2,0.00,9.5,15.0,"06:25:38",1
"17/10/24","06:40",0.0,10.4,94.1,1014.5,312.1,1.1,1.6,312.2,0.00,9.5,14.9,"06:31:04",1
"17/10/24","06:50",0.0,10.4,94.4,1014.7,269.8,1.0,1.2,272.8,0.00,9.6,15.0,"06:40:32",1
"17/10/24","07:00",0.0,10.4,94.6,1014.9,304.7,0.3,1.0,288.3,0.00,9.6,14.7,"06:53:18",1
"17/10/24","07:10",0.0,10.5,95.0,1015.2,319.3,1.5,2.6,311.3,0.00,9.8,14.8,"07:07:16",1
"17/10/24","07:20",0.0,10.7,95.2,1015.6,303.3,1.3,1.9,330.6,0.01,10.0,14.8,"07:11:52",1
"17/10/24","07:30",0.0,10.9,95.3,1015.9,277.2,1.2,1.8,310.6,0.02,10.2,14.9,"07:26:08",1
"17/10/24","07:40",0.0,11.1,95.2,1015.9,287.8,1.1,1.6,304.5,0.04,10.4,15.2,"07:32:10",1
"17/10/24","07:50",0.0,11.5,94.9,1016.1,266.6,1.0,1.3,261.9,0.05,10.8,15.1,"07:46:32",1
"17/10/24","08:00",0.0,11.8,94.1,1016.4,297.6,0.6,1.9,320.6,0.05,10.9,15.2,"07:50:56",1
"17/10/24","08:10",0.0,12.1,92.9,1016.8,318.7,0.8,2.0,327.0,0.08,11.0,15.3,"08:06:32",1
"17/10/24","08:20",0.0,12.4,91.8,1016.8,334.0,0.7,1.4,337.3,0.08,11.1,15.2,"08:17:04",1
"17/10/24","08:30",0.0,12.6,90.6,1016.8,358.4,0.6,1.2,342.6,0.08,11.1,15.1,"08:21:20",1
"17/10/24","08:40",0.0,12.8,88.8,1017.1,332.0,1.1,2.0,334.8,0.08,11.0,15.3,"08:34:32",1
"17/10/24","08:50",0.0,13.4,85.9,1017.1,317.8,1.0,1.7,324.0,0.16,11.1,15.3,"08:42:48",1
"17/10/24","09:00",0.0,13.8,84.2,1017.1,277.2,0.7,1.2,319.0,0.17,11.2,15.5,"08:50:24",1
"17/10/24","09:10",0.0,13.8,82.8,1017.5,287.1,0.6,1.0,292.4,0.11,11.0,15.3,"09:04:08",1
"17/10/24","09:20",0.0,14.7,77.9,1017.8,306.4,0.6,1.1,333.4,0.25,10.9,15.7,"09:12:00",1
"17/10/24","09:30",0.0,14.6,76.7,1017.5,207.5,0.3,1.1,211.7,0.18,10.6,15.6,"09:23:52",1
"17/10/24","09:40",0.0,14.4,76.8,1017.5,228.8,0.5,1.1,111.0,0.13,10.4,15.8,"09:32:56",1
"17/10/24","09:50",0.0,14.1,78.9,1017.1,158.3,0.5,1.3,126.9,0.07,10.5,15.9,"09:44:40",1
"17/10/24","10:00",0.0,14.3,79.7,1016.8,147.0,0.5,1.3,159.1,0.14,10.9,15.7,"09:58:40",1
"17/10/24","10:10",0.0,15.4,75.7,1016.8,197.6,0.8,1.7,107.6,0.27,11.2,15.7,"10:09:52",1
"17/10/24","10:20",0.0,16.1,74.4,1016.6,149.1,0.5,1.4,142.9,0.34,11.6,16.3,"10:16:32",1
"17/10/24","10:30",0.0,16.1,70.1,1016.6,110.5,0.8,2.2,117.8,0.38,10.7,16.2,"10:27:20",1
"17/10/24","10:40",0.0,16.4,70.5,1016.4,21.8,0.5,1.2,358.2,0.24,11.1,16.3,"10:34:00",1
"17/10/24","10:50",0.0,15.4,72.0,1016.4,38.7,0.3,1.1,116.2,0.13,10.4,16.5,"10:49:28",1
"17/10/24","11:00",0.0,15.5,70.1,1016.4,359.9,0.5,1.4,355.7,0.13,10.1,16.3,"10:55:28",1
"17/10/24","11:10",0.0,15.5,69.1,1016.1,120.5,0.3,1.0,123.1,0.13,9.9,16.6,"11:04:00",1
"17/10/24","11:20",0.0,16.0,69.6,1016.1,203.4,0.2,1.1,117.8,0.15,10.5,16.8,"11:12:56",1
"17/10/24","11:30",0.2,16.2,67.3,1016.4,24.9,0.7,1.8,358.3,0.20,10.2,16.5,"11:24:32",1
"17/10/24","11:40",0.0,16.6,64.7,1015.6,54.0,0.5,1.6,105.4,0.20,10.0,16.7,"11:33:36",1
"17/10/24","11:50",0.0,16.3,63.5,1016.1,38.8,0.7,2.0,350.4,0.20,9.4,16.9,"11:41:12",1
"17/10/24","12:00",0.0,16.6,63.7,1015.4,79.1,0.5,1.4,113.1,0.20,9.7,17.0,"11:56:48",1
"17/10/24","12:10",0.0,16.6,62.0,1015.2,18.9,0.7,2.0,3.8,0.22,9.3,17.0,"12:09:12",1
"17/10/24","12:20",0.0,16.7,62.2,1015.2,15.8,0.3,1.2,354.8,0.15,9.5,17.0,"12:18:16",1
"17/10/24","12:30",0.0,16.7,63.2,1014.9,176.3,0.3,1.6,199.3,0.16,9.7,16.9,"12:29:36",1
"17/10/24","12:40",0.0,16.7,62.3,1014.9,176.8,0.5,1.4,104.4,0.17,9.5,17.1,"12:34:56",1
"17/10/24","12:50",0.0,16.6,65.0,1014.7,128.8,0.5,1.7,164.8,0.13,10.0,17.3,"12:45:12",1
"17/10/24","13:00",0.0,16.8,65.4,1014.7,218.2,0.7,1.6,222.7,0.09,10.3,17.3,"12:51:44",1
"17/10/24","13:10",0.0,16.9,62.6,1014.7,310.6,0.3,1.0,48.9,0.09,9.8,17.3,"13:02:32",1
"17/10/24","13:20",0.0,17.0,63.0,1014.7,97.5,0.5,1.2,41.0,0.08,10.0,17.2,"13:13:04",1
"17/10/24","13:30",0.0,17.0,62.9,1014.7,7.4,0.2,0.9,132.7,0.08,9.9,17.4,"13:22:40",1
"17/10/24","13:40",0.0,17.2,62.8,1014.7,359.2,0.7,1.9,348.8,0.09,10.1,17.4,"13:37:28",1
"17/10/24","13:50",0.0,17.1,63.9,1014.7,333.1,0.5,1.4,350.9,0.08,10.3,17.3,"13:40:08",1
"17/10/24","14:00",0.0,16.9,66.7,1014.7,281.4,0.5,0.9,248.6,0.05,10.7,17.6,"13:52:56",1
"17/10/24","14:10",0.0,16.8,68.4,1014.5,312.4,0.5,1.3,321.2,0.06,11.0,17.2,"14:08:12",1
"17/10/24","14:20",0.0,16.6,67.7,1014.5,141.8,0.5,1.4,131.4,0.04,10.6,17.3,"14:14:40",1
"17/10/24","14:30",0.0,16.4,68.6,1014.5,74.6,0.6,1.9,118.0,0.03,10.7,17.4,"14:27:52",1
"17/10/24","14:40",0.0,16.4,70.3,1014.5,111.2,0.5,1.4,68.2,0.07,11.0,17.4,"14:37:44",1
"17/10/24","14:50",0.0,16.5,68.6,1014.2,62.2,0.6,1.2,85.4,0.08,10.8,17.5,"14:40:56",1
"17/10/24","15:00",0.0,16.2,69.4,1014.5,117.0,0.5,1.2,103.0,0.08,10.6,17.3,"14:54:16",1
"17/10/24","15:10",0.0,16.5,69.3,1014.9,56.7,0.5,1.6,90.4,0.06,10.9,17.3,"15:02:00",1
"17/10/24","15:20",0.0,16.3,71.8,1014.7,356.0,0.5,1.1,352.5,0.04,11.2,17.2,"15:16:48",1
"17/10/24","15:30",0.0,16.1,72.2,1014.9,118.6,0.3,1.1,115.6,0.02,11.1,17.3,"15:21:36",1
"17/10/24","15:40",0.0,15.8,74.0,1014.9,148.4,0.6,1.7,117.5,0.02,11.2,17.2,"15:37:04",1
"17/10/24","15:50",0.0,15.7,74.1,1014.9,82.7,0.6,1.3,114.1,0.03,11.1,17.3,"15:42:08",1
"17/10/24","16:00",0.0,15.7,75.5,1014.9,99.5,0.6,1.9,141.1,0.04,11.4,17.2,"15:53:36",1
"17/10/24","16:10",0.0,15.5,75.6,1014.7,43.9,0.3,1.0,344.8,0.02,11.3,17.3,"16:00:40",1
"17/10/24","16:20",0.0,15.3,76.3,1014.7,221.8,0.3,1.3,142.1,0.02,11.2,17.2,"16:14:32",1
"17/10/24","16:30",0.0,15.3,76.2,1014.7,265.2,0.3,0.9,340.4,0.00,11.2,17.1,"16:26:48",1
"17/10/24","16:40",0.0,15.1,77.6,1014.7,260.2,0.5,0.8,281.5,0.00,11.3,17.1,"16:36:40",1
"17/10/24","16:50",0.0,15.0,79.5,1014.7,258.2,0.2,0.8,210.0,0.00,11.5,17.1,"16:40:02",1
"17/10/24","17:00",0.0,14.8,81.0,1014.9,229.7,0.3,1.2,164.8,0.00,11.6,17.2,"16:50:08",1
"17/10/24","17:10",0.0,14.7,80.3,1014.5,263.8,0.3,1.0,314.3,0.00,11.4,17.1,"17:06:32",1
"17/10/24","17:20",0.0,14.6,80.7,1014.7,313.2,0.7,1.7,324.4,0.00,11.4,17.1,"17:17:12",1
"17/10/24","17:30",0.0,14.4,80.9,1014.7,321.9,0.6,1.3,320.4,0.00,11.2,17.1,"17:21:04",1
"17/10/24","17:40",0.0,14.2,84.8,1014.9,283.9,0.6,1.2,322.3,0.00,11.7,16.9,"17:38:32",1
"17/10/24","17:50",0.0,14.1,87.3,1014.9,300.3,0.8,1.3,309.7,0.00,12.1,17.1,"17:40:08",1
"17/10/24","18:00",0.0,14.0,88.0,1014.9,332.4,1.2,1.9,339.7,0.00,12.1,17.1,"17:52:24",1
"17/10/24","18:10",0.0,13.9,87.4,1014.9,330.1,0.7,1.4,338.2,0.00,11.9,17.0,"18:00:48",1
"17/10/24","18:20",0.0,13.8,87.2,1015.2,269.3,0.3,0.9,290.4,0.00,11.8,16.8,"18:11:20",1
"17/10/24","18:30",0.0,13.9,87.3,1015.2,333.3,0.5,1.2,351.3,0.00,11.9,16.8,"18:26:56",1
"17/10/24","18:40",0.0,13.8,87.0,1015.6,330.9,0.8,2.0,349.2,0.00,11.7,16.7,"18:37:44",1
"17/10/24","18:50",0.0,13.7,87.9,1015.4,341.2,0.6,1.6,334.6,0.00,11.8,16.7,"18:40:56",1
"17/10/24","19:00",0.0,13.6,90.1,1015.4,302.6,0.7,1.3,339.0,0.00,12.0,16.8,"18:58:28",1
"17/10/24","19:10",0.0,13.4,91.9,1015.4,318.5,1.3,2.0,331.8,0.00,12.2,16.6,"19:05:52",1
"17/10/24","19:20",0.0,13.1,93.1,1015.2,278.8,1.0,1.6,270.1,0.00,12.1,16.8,"19:12:56",1
"17/10/24","19:30",0.0,12.9,93.9,1015.2,281.7,1.0,1.6,298.9,0.00,12.0,16.6,"19:28:00",1
"17/10/24","19:40",0.0,12.9,94.3,1014.9,314.6,1.3,2.7,315.4,0.00,12.0,16.6,"19:34:16",1
"17/10/24","19:50",0.0,12.9,94.9,1015.4,306.2,1.2,2.2,328.4,0.00,12.1,16.5,"19:41:20",1
"17/10/24","20:00",0.0,12.9,95.2,1015.2,327.0,1.5,2.0,326.0,0.00,12.2,16.6,"19:59:28",1
"17/10/24","20:10",0.0,12.8,95.6,1015.4,317.4,1.3,2.1,316.0,0.00,12.2,16.5,"20:00:40",1
"17/10/24","20:20",0.0,12.8,95.8,1015.6,316.1,1.8,2.6,325.9,0.00,12.2,16.7,"20:11:12",1
"17/10/24","20:30",0.0,12.8,95.8,1015.4,316.5,2.0,2.6,311.4,0.00,12.2,16.4,"20:27:36",1
"17/10/24","20:40",0.0,12.8,96.0,1015.9,311.7,1.2,1.8,320.2,0.00,12.2,16.4,"20:31:28",1
"17/10/24","20:50",0.0,12.8,96.2,1015.6,279.1,1.1,1.2,284.8,0.00,12.3,16.3,"20:42:08",1
"17/10/24","21:00",0.0,12.8,96.6,1015.4,287.1,0.8,1.0,283.6,0.00,12.3,16.4,"20:57:58",1
"17/10/24","21:10",0.0,12.8,96.8,1015.4,334.4,1.1,1.8,329.5,0.00,12.3,16.2,"21:09:34",1
"17/10/24","21:20",0.0,12.8,97.0,1015.4,325.0,1.5,2.5,330.7,0.00,12.4,16.2,"21:13:20",1
"17/10/24","21:30",0.0,12.7,97.1,1015.2,338.1,1.7,2.1,316.2,0.00,12.3,16.1,"21:24:52",1
"17/10/24","21:40",0.0,12.7,97.0,1015.2,321.1,1.6,2.4,317.5,0.00,12.3,16.0,"21:34:38",1
"17/10/24","21:50",0.0,12.7,97.0,1014.9,314.5,1.6,2.4,328.6,0.00,12.3,16.1,"21:48:10",1
"17/10/24","22:00",0.0,12.7,97.0,1014.9,311.0,1.3,1.8,308.2,0.00,12.3,15.9,"21:56:48",1
"17/10/24","22:10",0.0,12.8,97.0,1014.9,329.5,1.2,1.8,331.6,0.00,12.4,16.0,"22:09:00",1
"17/10/24","22:20",0.0,12.7,97.0,1015.2,312.6,1.6,2.6,332.3,0.00,12.3,15.9,"22:13:16",1
"17/10/24","22:30",0.0,12.7,97.0,1015.2,280.6,1.1,1.8,324.0,0.00,12.3,16.0,"22:22:04",1
"17/10/24","22:40",0.0,12.7,97.0,1015.2,324.6,1.7,2.8,320.3,0.00,12.3,15.8,"22:39:44",1
"17/10/24","22:50",0.0,12.7,97.0,1015.4,312.4,2.3,4.2,328.7,0.00,12.3,15.8,"22:46:58",1
"17/10/24","23:00",0.0,12.6,97.2,1015.2,290.8,1.2,2.2,313.4,0.00,12.2,15.9,"22:50:38",1
"17/10/24","23:10",0.0,12.6,97.4,1014.7,331.4,1.1,1.4,339.4,0.00,12.2,15.8,"23:05:16",1
"17/10/24","23:20",0.0,12.6,97.4,1014.7,353.4,0.6,1.2,26.7,0.00,12.2,15.9,"23:11:00",1
"17/10/24","23:30",0.0,12.6,97.7,1014.7,293.3,0.7,1.3,241.3,0.00,12.3,15.8,"23:27:52",1
"17/10/24","23:40",0.0,12.6,97.8,1014.9,294.7,0.7,1.3,325.6,0.00,12.3,16.0,"23:39:00",1
"17/10/24","23:50",0.0,12.6,97.9,1014.9,309.8,1.3,1.8,304.0,0.00,12.3,15.7,"23:49:14",1
"17/10/24","24:00",0.0,12.5,97.9,1014.7,313.0,1.6,2.7,304.7,0.00,12.2,15.8,"23:53:08",1
